Location: Breitenfeld
(46.8500°N, 15.6333°E)
Time: 19:06:55
(UTC+00:00)

COSMOS 2251 DEB - Visible Passes

Search period start: 21 October 2021 00:00
Search period end: 31 October 2021 00:00
Orbit: 754 x 791 km, 74.0° (Epoch: 21 October)

Date Brightness Start Highest point End Pass type
(mag) Time Alt. Az. Time Alt. Az. Time Alt. Az.
21 Oct ? 18:49:17 10° N 18:51:35 23° N 18:51:35 23° N visible
21 Oct ? 20:31:40 10° NW 20:31:57 11° NW 20:31:57 11° NW visible
22 Oct ? 18:13:52 10° N 18:16:38 22° NNE 18:16:38 22° NNE visible
22 Oct ? 19:55:39 10° NNW 19:57:00 18° NW 19:57:00 18° NW visible
23 Oct ? 17:38:38 10° N 17:41:44 18° NE 17:41:44 18° NE visible
23 Oct ? 19:19:49 10° NNW 19:22:06 26° NNW 19:22:06 26° NNW visible
24 Oct ? 17:03:46 10° NNE 17:06:10 13° NE 17:06:52 13° NE visible
24 Oct ? 18:44:07 10° NNW 18:47:14 35° N 18:47:14 35° N visible
24 Oct ? 20:27:24 10° NW 20:27:36 11° NW 20:27:36 11° NW visible
25 Oct ? 18:08:33 10° N 18:12:26 36° NNE 18:12:26 36° NNE visible
25 Oct ? 19:51:01 10° NW 19:52:49 19° NW 19:52:49 19° NW visible
26 Oct ? 17:33:05 10° N 17:37:42 28° NE 17:37:42 28° NE visible
26 Oct ? 19:14:58 10° NNW 19:18:04 32° NW 19:18:04 32° NW visible
27 Oct ? 16:57:49 10° N 17:01:38 19° NE 17:03:01 18° ENE visible
27 Oct ? 18:39:06 10° NNW 18:43:25 57° NW 18:43:25 57° NW visible
28 Oct ? 16:22:52 10° NNE 16:25:30 14° NE 16:28:07 10° ENE visible
28 Oct ? 18:03:23 10° NNW 18:08:44 69° ENE 18:08:52 69° ENE visible
28 Oct ? 19:46:50 10° NW 19:49:16 17° W 19:49:16 17° W visible
29 Oct ? 17:27:47 10° NNW 17:32:55 45° ENE 17:34:27 35° ESE visible
29 Oct ? 19:10:22 10° NW 19:14:50 28° W 19:14:51 28° W visible
30 Oct ? 16:52:18 10° N 16:56:59 30° NE 17:00:14 17° ESE visible
30 Oct ? 18:34:17 10° NNW 18:39:19 44° WSW 18:40:39 37° SW visible
